ECNFQ SVMI-TNCM

Flight info

Callsign ECNFQ
Flight time 1h 15m
Altitude 37000
Route MIDUR UN779 SILVA UM576 MILOK M576 DANDE
Aircraft A346/H-SDE2E3FGHIJ3J4J5M1RWXY/LB1D1

Departure

Time 2026-05-06 18:54
Airport Maiquetía Simón Bolívar International Airport (SVMI)

Arrival

Time 2026-05-06 20:10
Airport Princess Juliana International Airport (TNCM)
Time Latitude Longitude Altitude Speed Heading
2026-05-06 18:32 10.59821 -67.00844 215 ft 0 kts 180°
2026-05-06 18:46 10.59839 -67.00844 217 ft 4 kts 179°
2026-05-06 18:46 10.59866 -67.00845 224 ft 4 kts 177°
2026-05-06 18:46 10.59891 -67.00847 222 ft 4 kts 172°
2026-05-06 18:47 10.59908 -67.00852 223 ft 4 kts 136°
2026-05-06 18:47 10.59913 -67.00858 226 ft 4 kts 87°
2026-05-06 18:47 10.59907 -67.00883 224 ft 4 kts 76°
2026-05-06 18:47 10.59903 -67.00907 221 ft 2 kts 88°
2026-05-06 18:48 10.59903 -67.00908 221 ft 0 kts 88°
2026-05-06 18:49 10.59904 -67.00901 222 ft 6 kts 88°
2026-05-06 18:49 10.59905 -67.00832 226 ft 13 kts 88°
2026-05-06 18:49 10.59909 -67.00716 213 ft 19 kts 87°
2026-05-06 18:50 10.59916 -67.00567 209 ft 23 kts 88°
2026-05-06 18:50 10.59920 -67.00392 213 ft 27 kts 89°
2026-05-06 18:50 10.59914 -67.00272 197 ft 16 kts 100°
2026-05-06 18:50 10.59904 -67.00134 191 ft 23 kts 87°
2026-05-06 18:51 10.59909 -67.00008 183 ft 10 kts 88°
2026-05-06 18:51 10.59943 -66.99930 180 ft 14 kts 25°
2026-05-06 18:51 10.60028 -66.99922 188 ft 10 kts 359°
2026-05-06 18:51 10.60086 -66.99919 191 ft 7 kts 15°
2026-05-06 18:52 10.60126 -66.99883 207 ft 11 kts 60°
2026-05-06 18:52 10.60137 -66.99774 190 ft 19 kts 88°
2026-05-06 18:52 10.60084 -66.99676 189 ft 18 kts 163°
2026-05-06 18:52 10.59967 -66.99667 179 ft 12 kts 178°
2026-05-06 18:53 10.59909 -66.99612 177 ft 14 kts 90°
2026-05-06 18:53 10.59916 -66.99577 178 ft 0 kts 76°
2026-05-06 18:53 10.59917 -66.99573 178 ft 9 kts 76°
2026-05-06 18:53 10.60003 -66.99223 184 ft 92 kts 76°
2026-05-06 18:54 10.60220 -66.98340 213 ft 161 kts 76°
2026-05-06 18:54 10.60528 -66.97090 574 ft 192 kts 76°
2026-05-06 18:54 10.60847 -66.95790 1519 ft 187 kts 76°
2026-05-06 18:54 10.61169 -66.94504 2553 ft 187 kts 73°
2026-05-06 18:55 10.61900 -66.93409 3127 ft 199 kts 33°
2026-05-06 18:55 10.63298 -66.93121 3445 ft 220 kts 354°
2026-05-06 18:55 10.64745 -66.93726 3710 ft 239 kts 325°
2026-05-06 18:55 10.66136 -66.94763 3958 ft 257 kts 336°
2026-05-06 18:56 10.67924 -66.95159 4275 ft 272 kts
2026-05-06 18:56 10.69862 -66.95106 4849 ft 282 kts
2026-05-06 18:56 10.71833 -66.94963 5582 ft 286 kts
2026-05-06 18:56 10.73827 -66.94819 6379 ft 289 kts
2026-05-06 18:57 10.75848 -66.94693 7097 ft 294 kts
2026-05-06 18:57 10.77905 -66.94566 7821 ft 298 kts
2026-05-06 18:57 10.79964 -66.94445 8549 ft 301 kts
2026-05-06 18:57 10.82067 -66.94336 9306 ft 304 kts
2026-05-06 18:58 10.84193 -66.94226 10033 ft 307 kts
2026-05-06 18:58 10.86357 -66.94116 10592 ft 316 kts
2026-05-06 18:58 10.88610 -66.94002 10916 ft 333 kts
2026-05-06 18:58 10.90987 -66.93877 11203 ft 350 kts
2026-05-06 18:59 10.93481 -66.93747 11474 ft 366 kts
2026-05-06 18:59 10.96050 -66.93616 11760 ft 382 kts
2026-05-06 18:59 10.98781 -66.93477 12216 ft 391 kts
2026-05-06 18:59 11.01475 -66.93342 12888 ft 393 kts
2026-05-06 19:00 11.04221 -66.93205 13597 ft 395 kts
2026-05-06 19:00 11.06977 -66.93067 14215 ft 397 kts
2026-05-06 19:00 11.09739 -66.92923 14833 ft 399 kts
2026-05-06 19:00 11.12513 -66.92778 15476 ft 399 kts
2026-05-06 19:01 11.15295 -66.92634 16142 ft 400 kts
2026-05-06 19:01 11.18080 -66.92489 16811 ft 401 kts
2026-05-06 19:01 11.20868 -66.92346 17481 ft 402 kts
2026-05-06 19:01 11.23664 -66.92202 18143 ft 403 kts
2026-05-06 19:02 11.26471 -66.92058 18714 ft 404 kts
2026-05-06 19:02 11.29293 -66.91913 19220 ft 407 kts
2026-05-06 19:02 11.32140 -66.91767 19664 ft 412 kts
2026-05-06 19:02 11.35025 -66.91619 20039 ft 418 kts
2026-05-06 19:03 11.37907 -66.91471 20453 ft 423 kts
2026-05-06 19:03 11.40894 -66.91318 20921 ft 426 kts
2026-05-06 19:03 11.43829 -66.91168 21355 ft 429 kts
2026-05-06 19:03 11.46820 -66.91015 21819 ft 432 kts
2026-05-06 19:04 11.49831 -66.90859 22254 ft 435 kts
2026-05-06 19:04 11.52859 -66.90704 22712 ft 437 kts
2026-05-06 19:04 11.55913 -66.90546 23086 ft 441 kts
2026-05-06 19:04 11.59000 -66.90388 23499 ft 444 kts
2026-05-06 19:05 11.62099 -66.90227 23811 ft 448 kts
2026-05-06 19:05 11.65225 -66.90066 24168 ft 450 kts
2026-05-06 19:05 11.68328 -66.89905 24491 ft 453 kts
2026-05-06 19:05 11.71481 -66.89742 24826 ft 455 kts
2026-05-06 19:06 11.74662 -66.89578 25127 ft 459 kts
2026-05-06 19:06 11.77863 -66.89413 25459 ft 461 kts
2026-05-06 19:06 11.81085 -66.89201 25775 ft 465 kts
2026-05-06 19:06 11.84314 -66.88934 26117 ft 467 kts
2026-05-06 19:07 11.87562 -66.88657 26425 ft 470 kts
2026-05-06 19:07 11.90832 -66.88377 26735 ft 473 kts
2026-05-06 19:07 11.94129 -66.88100 27038 ft 476 kts
2026-05-06 19:07 11.97418 -66.87824 27339 ft 479 kts
2026-05-06 19:08 12.00751 -66.87549 27624 ft 482 kts
2026-05-06 19:08 12.04101 -66.87271 28020 ft 482 kts
2026-05-06 19:08 12.07446 -66.86994 28475 ft 482 kts
2026-05-06 19:08 12.10785 -66.86718 28927 ft 481 kts
2026-05-06 19:09 12.14129 -66.86441 29340 ft 482 kts
2026-05-06 19:09 12.17471 -66.86165 29758 ft 482 kts
2026-05-06 19:09 12.20821 -66.85888 30156 ft 482 kts
2026-05-06 19:09 12.24130 -66.85615 30519 ft 482 kts
2026-05-06 19:10 12.27520 -66.85333 30903 ft 482 kts
2026-05-06 19:10 12.30814 -66.85061 31286 ft 481 kts
2026-05-06 19:10 12.34152 -66.84785 31684 ft 480 kts
2026-05-06 19:10 12.37500 -66.84510 32072 ft 480 kts
2026-05-06 19:11 12.40822 -66.84238 32462 ft 479 kts
2026-05-06 19:11 12.44153 -66.83964 32858 ft 479 kts
2026-05-06 19:11 12.47481 -66.83688 33246 ft 478 kts
2026-05-06 19:11 12.50799 -66.83414 33624 ft 478 kts
2026-05-06 19:12 12.54111 -66.83140 34015 ft 478 kts
2026-05-06 19:12 12.57387 -66.82869 34335 ft 477 kts
2026-05-06 19:12 12.60699 -66.82596 34672 ft 476 kts
2026-05-06 19:12 12.64003 -66.82322 35014 ft 476 kts
2026-05-06 19:13 12.67299 -66.82049 35342 ft 475 kts
2026-05-06 19:13 12.70601 -66.81776 35637 ft 476 kts
2026-05-06 19:13 12.73904 -66.81503 35888 ft 477 kts
2026-05-06 19:13 12.77212 -66.81230 36128 ft 478 kts
2026-05-06 19:14 12.80530 -66.80954 36387 ft 479 kts
2026-05-06 19:14 12.83868 -66.80677 36638 ft 481 kts
2026-05-06 19:14 12.87208 -66.80401 36882 ft 482 kts
2026-05-06 19:14 12.90555 -66.80124 37002 ft 483 kts
2026-05-06 19:15 12.93911 -66.79846 36999 ft 483 kts
2026-05-06 19:15 13.00581 -66.79293 36998 ft 484 kts
2026-05-06 19:16 13.07303 -66.78735 37001 ft 484 kts
2026-05-06 19:16 13.14023 -66.78175 37008 ft 484 kts
2026-05-06 19:17 13.20740 -66.77617 37008 ft 484 kts
2026-05-06 19:17 13.27416 -66.77062 37002 ft 484 kts
2026-05-06 19:18 13.34140 -66.76502 37008 ft 484 kts
2026-05-06 19:18 13.40818 -66.75946 37009 ft 484 kts
2026-05-06 19:19 13.47538 -66.75386 37005 ft 484 kts
2026-05-06 19:19 13.54272 -66.74824 37009 ft 484 kts
2026-05-06 19:20 13.60945 -66.74268 37001 ft 484 kts
2026-05-06 19:20 13.67650 -66.73708 37009 ft 484 kts
2026-05-06 19:21 13.74362 -66.73147 37009 ft 484 kts
2026-05-06 19:21 13.81080 -66.72584 37006 ft 483 kts
2026-05-06 19:22 13.87799 -66.72023 37008 ft 483 kts
2026-05-06 19:22 13.94460 -66.71465 37010 ft 483 kts
2026-05-06 19:23 14.01178 -66.70903 37009 ft 483 kts
2026-05-06 19:23 14.06762 -66.70434 37013 ft 483 kts
2026-05-06 19:24 14.14567 -66.69779 37015 ft 484 kts
2026-05-06 19:24 14.20188 -66.69307 37010 ft 484 kts
2026-05-06 19:25 14.26898 -66.68742 37008 ft 484 kts
2026-05-06 19:25 14.33567 -66.68180 37012 ft 484 kts
2026-05-06 19:26 14.40243 -66.67091 37013 ft 489 kts 11°
2026-05-06 19:26 14.46646 -66.64598 37018 ft 496 kts 23°
2026-05-06 19:27 14.52484 -66.60741 37012 ft 501 kts 36°
2026-05-06 19:27 14.57730 -66.55953 37020 ft 502 kts 39°
2026-05-06 19:28 14.62898 -66.51069 37022 ft 503 kts 39°
2026-05-06 19:28 14.68047 -66.46236 37019 ft 503 kts 39°
2026-05-06 19:29 14.73244 -66.41378 37032 ft 503 kts 39°
2026-05-06 19:29 14.78441 -66.36521 37026 ft 503 kts 39°
2026-05-06 19:30 14.83650 -66.31652 37025 ft 503 kts 39°
2026-05-06 19:30 14.88821 -66.26814 37025 ft 503 kts 39°
2026-05-06 19:31 14.94019 -66.21948 37023 ft 504 kts 39°
2026-05-06 19:31 15.01831 -66.14625 37034 ft 505 kts 39°
2026-05-06 19:32 15.06993 -66.09755 37024 ft 505 kts 40°
2026-05-06 19:32 15.12122 -66.04776 37024 ft 505 kts 40°
2026-05-06 19:33 15.17248 -65.99786 37024 ft 505 kts 40°
2026-05-06 19:33 15.22376 -65.94801 37029 ft 505 kts 40°
2026-05-06 19:34 15.27512 -65.89809 37028 ft 506 kts 40°
2026-05-06 19:34 15.32643 -65.84786 37042 ft 506 kts 41°
2026-05-06 19:35 15.37709 -65.79765 37030 ft 506 kts 41°
2026-05-06 19:35 15.42818 -65.74696 37035 ft 506 kts 41°
2026-05-06 19:36 15.47916 -65.69637 37029 ft 506 kts 41°
2026-05-06 19:36 15.52977 -65.64614 37033 ft 506 kts 41°
2026-05-06 19:37 15.58069 -65.59556 37028 ft 507 kts 41°
2026-05-06 19:37 15.63175 -65.54480 37038 ft 508 kts 41°
2026-05-06 19:38 15.68280 -65.49401 37033 ft 508 kts 41°
2026-05-06 19:38 15.73397 -65.44330 37029 ft 507 kts 41°
2026-05-06 19:39 15.78477 -65.39302 37033 ft 507 kts 41°
2026-05-06 19:39 15.83597 -65.34226 37036 ft 507 kts 41°
2026-05-06 19:40 15.88710 -65.29150 37033 ft 507 kts 41°
2026-05-06 19:40 15.93833 -65.24062 37033 ft 509 kts 41°
2026-05-06 19:41 15.98926 -65.18997 37040 ft 509 kts 41°
2026-05-06 19:41 16.04061 -65.13886 37029 ft 509 kts 41°
2026-05-06 19:42 16.09150 -65.08816 37042 ft 509 kts 41°
2026-05-06 19:42 16.14265 -65.03721 37034 ft 509 kts 41°
2026-05-06 19:43 16.16824 -65.01171 36892 ft 509 kts 41°
2026-05-06 19:43 16.19382 -64.98621 36650 ft 506 kts 41°
2026-05-06 19:43 16.21917 -64.96090 36400 ft 503 kts 41°
2026-05-06 19:43 16.24438 -64.93574 36120 ft 501 kts 41°
2026-05-06 19:44 16.26947 -64.91071 35781 ft 498 kts 41°
2026-05-06 19:44 16.29445 -64.88578 35314 ft 497 kts 41°
2026-05-06 19:44 16.31940 -64.86087 34838 ft 495 kts 41°
2026-05-06 19:44 16.34426 -64.83604 34365 ft 494 kts 42°
2026-05-06 19:45 16.36908 -64.81121 33858 ft 493 kts 42°
2026-05-06 19:45 16.39382 -64.78644 33340 ft 492 kts 42°
2026-05-06 19:45 16.41818 -64.76202 32869 ft 491 kts 42°
2026-05-06 19:45 16.44288 -64.73727 32409 ft 491 kts 41°
2026-05-06 19:46 16.46753 -64.71257 31930 ft 491 kts 41°
2026-05-06 19:46 16.49222 -64.68781 31416 ft 491 kts 41°
2026-05-06 19:46 16.51690 -64.66306 30893 ft 491 kts 41°
2026-05-06 19:46 16.54122 -64.63866 30370 ft 491 kts 41°
2026-05-06 19:47 16.56594 -64.61386 29746 ft 491 kts 41°
2026-05-06 19:47 16.59062 -64.58911 29113 ft 490 kts 41°
2026-05-06 19:47 16.61522 -64.56443 28551 ft 488 kts 41°
2026-05-06 19:47 16.63975 -64.53981 27982 ft 488 kts 42°
2026-05-06 19:48 16.66390 -64.51555 27431 ft 487 kts 42°
2026-05-06 19:48 16.68834 -64.49099 26843 ft 486 kts 42°
2026-05-06 19:48 16.71256 -64.46664 26433 ft 479 kts 42°
2026-05-06 19:48 16.73648 -64.44256 26096 ft 474 kts 42°
2026-05-06 19:49 16.76019 -64.41869 25652 ft 471 kts 42°
2026-05-06 19:49 16.78369 -64.39503 25256 ft 466 kts 42°
2026-05-06 19:49 16.80696 -64.37159 24870 ft 461 kts 43°
2026-05-06 19:49 16.82966 -64.34872 24494 ft 456 kts 43°
2026-05-06 19:50 16.85243 -64.32576 24097 ft 452 kts 43°
2026-05-06 19:50 16.87497 -64.30304 23716 ft 448 kts 43°
2026-05-06 19:50 16.89731 -64.28050 23293 ft 443 kts 43°
2026-05-06 19:50 16.91936 -64.25823 22881 ft 439 kts 43°
2026-05-06 19:51 16.94124 -64.23614 22435 ft 435 kts 43°
2026-05-06 19:51 16.96297 -64.21418 21994 ft 431 kts 43°
2026-05-06 19:51 16.98449 -64.19243 21564 ft 428 kts 43°
2026-05-06 19:51 17.00558 -64.17112 21134 ft 425 kts 43°
2026-05-06 19:52 17.02674 -64.14972 20691 ft 421 kts 43°
2026-05-06 19:52 17.04777 -64.12845 20234 ft 418 kts 43°
2026-05-06 19:52 17.06867 -64.10731 19803 ft 415 kts 42°
2026-05-06 19:52 17.08936 -64.08637 19351 ft 412 kts 42°
2026-05-06 19:53 17.10992 -64.06555 18933 ft 410 kts 42°
2026-05-06 19:53 17.13014 -64.04508 18505 ft 408 kts 42°
2026-05-06 19:53 17.15048 -64.02448 18032 ft 405 kts 42°
2026-05-06 19:53 17.17073 -64.00398 17586 ft 402 kts 42°
2026-05-06 19:54 17.19079 -63.98367 17153 ft 399 kts 42°
2026-05-06 19:54 17.21071 -63.96349 16721 ft 396 kts 42°
2026-05-06 19:54 17.23022 -63.94370 16301 ft 393 kts 42°
2026-05-06 19:54 17.24983 -63.92381 15883 ft 390 kts 42°
2026-05-06 19:55 17.26926 -63.90409 15472 ft 388 kts 42°
2026-05-06 19:55 17.28863 -63.88441 15060 ft 386 kts 43°
2026-05-06 19:55 17.30788 -63.86485 14630 ft 384 kts 42°
2026-05-06 19:55 17.32704 -63.84538 14214 ft 383 kts 42°
2026-05-06 19:56 17.34614 -63.82596 13783 ft 382 kts 43°
2026-05-06 19:56 17.36518 -63.80660 13313 ft 380 kts 43°
2026-05-06 19:56 17.38411 -63.78736 12892 ft 377 kts 43°
2026-05-06 19:56 17.40262 -63.76851 12488 ft 374 kts 43°
2026-05-06 19:57 17.42127 -63.74954 12075 ft 371 kts 43°
2026-05-06 19:57 17.43974 -63.73072 11657 ft 369 kts 43°
2026-05-06 19:57 17.45814 -63.71201 11249 ft 367 kts 43°
2026-05-06 19:57 17.47637 -63.69344 10856 ft 364 kts 44°
2026-05-06 19:58 17.49442 -63.67550 10746 ft 350 kts 41°
2026-05-06 19:58 17.51269 -63.65953 10616 ft 338 kts 37°
2026-05-06 19:58 17.53141 -63.64528 10518 ft 326 kts 34°
2026-05-06 19:58 17.54973 -63.63201 10402 ft 314 kts 34°
2026-05-06 19:59 17.56747 -63.61922 10264 ft 304 kts 34°
2026-05-06 19:59 17.58453 -63.60692 10174 ft 290 kts 34°
2026-05-06 19:59 17.60104 -63.59500 10131 ft 283 kts 34°
2026-05-06 19:59 17.61718 -63.58333 9962 ft 282 kts 34°
2026-05-06 20:00 17.63344 -63.57158 9595 ft 283 kts 35°
2026-05-06 20:00 17.64966 -63.55986 9269 ft 282 kts 35°
2026-05-06 20:00 17.66559 -63.54834 8969 ft 281 kts 36°
2026-05-06 20:00 17.68166 -63.53670 8673 ft 279 kts 36°
2026-05-06 20:01 17.69762 -63.52513 8379 ft 278 kts 36°
2026-05-06 20:01 17.71354 -63.51361 8089 ft 276 kts 36°
2026-05-06 20:01 17.72933 -63.50215 7804 ft 275 kts 36°
2026-05-06 20:01 17.74502 -63.49080 7515 ft 273 kts 36°
2026-05-06 20:02 17.76061 -63.47948 7230 ft 272 kts 36°
2026-05-06 20:02 17.77620 -63.46818 6935 ft 270 kts 37°
2026-05-06 20:02 17.79169 -63.45696 6676 ft 269 kts 37°
2026-05-06 20:02 17.80688 -63.44591 6388 ft 268 kts 37°
2026-05-06 20:03 17.82225 -63.43477 6093 ft 267 kts 37°
2026-05-06 20:03 17.83748 -63.42367 5806 ft 266 kts 37°
2026-05-06 20:03 17.85278 -63.41257 5506 ft 266 kts 37°
2026-05-06 20:03 17.86798 -63.40154 5215 ft 265 kts 37°
2026-05-06 20:04 17.88312 -63.39052 4918 ft 264 kts 37°
2026-05-06 20:04 17.89807 -63.37969 4683 ft 262 kts 37°
2026-05-06 20:04 17.91298 -63.36884 4475 ft 258 kts 37°
2026-05-06 20:04 17.92764 -63.35818 4212 ft 255 kts 37°
2026-05-06 20:05 17.94225 -63.34757 3948 ft 254 kts 37°
2026-05-06 20:05 17.95673 -63.33702 3701 ft 252 kts 37°
2026-05-06 20:05 17.97115 -63.32656 3651 ft 253 kts 37°
2026-05-06 20:05 17.98566 -63.31598 3632 ft 253 kts 37°
2026-05-06 20:06 18.00013 -63.30544 3538 ft 251 kts 37°
2026-05-06 20:06 18.01383 -63.29435 3306 ft 244 kts 53°
2026-05-06 20:06 18.02043 -63.27887 2975 ft 233 kts 84°
2026-05-06 20:06 18.02183 -63.26219 2726 ft 224 kts 88°
2026-05-06 20:07 18.02289 -63.24619 2450 ft 216 kts 87°
2026-05-06 20:07 18.02439 -63.23074 2166 ft 207 kts 86°
2026-05-06 20:07 18.02609 -63.21607 1933 ft 197 kts 84°
2026-05-06 20:07 18.02790 -63.20220 1662 ft 185 kts 84°
2026-05-06 20:08 18.02964 -63.18924 1395 ft 173 kts 83°
2026-05-06 20:08 18.03130 -63.17708 1148 ft 164 kts 84°
2026-05-06 20:08 18.03303 -63.16529 950 ft 163 kts 85°
2026-05-06 20:08 18.03463 -63.15351 770 ft 162 kts 84°
2026-05-06 20:09 18.03626 -63.14176 521 ft 162 kts 83°
2026-05-06 20:09 18.03793 -63.13004 336 ft 162 kts 83°
2026-05-06 20:09 18.03966 -63.11854 59 ft 154 kts 84°
2026-05-06 20:09 18.04094 -63.10899 29 ft 96 kts 82°
2026-05-06 20:10 18.04152 -63.10477 29 ft 21 kts 82°
2026-05-06 20:10 18.04164 -63.10393 28 ft 14 kts 82°
2026-05-06 20:10 18.04179 -63.10283 28 ft 17 kts 81°
2026-05-06 20:10 18.04198 -63.10147 28 ft 20 kts 81°
2026-05-06 20:11 18.04224 -63.09992 28 ft 20 kts 78°
2026-05-06 20:11 18.04273 -63.09902 28 ft 5 kts 57°
2026-05-06 20:11 18.04274 -63.09873 8 ft 2 kts 131°
2026-05-06 20:11 18.04247 -63.09884 38 ft 9 kts 236°
2026-05-06 20:12 18.04231 -63.09931 35 ft 13 kts 258°
2026-05-06 20:12 18.04214 -63.10057 27 ft 23 kts 262°
2026-05-06 20:12 18.04187 -63.10244 28 ft 27 kts 261°
2026-05-06 20:12 18.04158 -63.10442 28 ft 28 kts 261°
2026-05-06 20:13 18.04129 -63.10646 30 ft 28 kts 261°
2026-05-06 20:13 18.04102 -63.10842 2 ft 20 kts 261°
2026-05-06 20:13 18.04084 -63.10966 30 ft 17 kts 262°
2026-05-06 20:13 18.04069 -63.11087 3 ft 16 kts 268°
2026-05-06 20:14 18.04132 -63.11175 30 ft 16 kts 318°
2026-05-06 20:14 18.04153 -63.11257 29 ft 4 kts 275°
2026-05-06 20:14 18.04185 -63.11301 29 ft 14 kts 322°
2026-05-06 20:14 18.04220 -63.11328 29 ft 3 kts 326°
2026-05-06 20:15 18.04250 -63.11346 29 ft 6 kts 340°
2026-05-06 20:15 18.04283 -63.11354 29 ft 0 kts 350°
2026-05-06 20:15 18.04301 -63.11357 29 ft 5 kts 351°
2026-05-06 20:15 18.04318 -63.11360 29 ft 1 kts 351°
2026-05-06 20:16 18.04322 -63.11361 29 ft 0 kts 351°